Weather History for KELP - May, 2014

Change the Weather History Date:

Tuesday, May 13, 2014

  Actual Average Record
Temperature  
Mean Temperature 58 °F 73 °F  
Max Temperature 67 °F 87 °F 102 °F (1996)
Min Temperature 49 °F 59 °F 42 °F (1979)
Degree Days  
Heating Degree Days 7 0  
Month to date heating degree days 18 6  
Since 1 July heating degree days 2044 2471  
Cooling Degree Days 0 8  
Month to date cooling degree days 81 87  
Year to date cooling degree days 207 179  
Growing Degree Days 9 (Base 50)    
Moisture  
Dew Point 24 °F    
Average Humidity 28    
Maximum Humidity 36    
Minimum Humidity 20    
Precipitation  
Precipitation 0.00 in 0.02 in 0.53 in (1893)
Month to date precipitation 0.00 0.17  
Year to date precipitation 0.63 1.52  
Snow  
Snow 0.00 in - - ()
Month to date snowfall 0.0  
Since 1 July snowfall T  
Snow Depth 0.00 in    
Sea Level Pressure  
Sea Level Pressure 30.14 in    
Wind  
Wind Speed 12 mph (ENE)    
Max Wind Speed 26 mph    
Max Gust Speed 32 mph    
Visibility 10 miles    
Events      
T = Trace of Precipitation, MM = Missing Value Source: NWS Daily Summary

Daily Weather History Graph

Daily Weather History Graph

Search for Another Location

Airport or City:

Trip Planner

Search our weather history database for the weather conditions in past years. The results will help you decide how hot, cold, wet, or windy it might be!

Date:

Astronomy

May. 13, 2014 Rise Set
Actual Time 6:09 AM MDT 7:54 PM MDT
Civil Twilight 5:43 AM MDT 8:20 PM MDT
Nautical Twilight 5:11 AM MDT 8:53 PM MDT
Astronomical Twilight 4:37 AM MDT 9:27 PM MDT
Moon 7:02 PM MDT (5/13) 5:22 AM MDT (5/13)
Length of Visible Light 14h 37m
Length of Day
13h 44m
Waxing Gibbous, 99% of the Moon is Illuminated
May 13
Waxing Gibbous
May 14
Full
May 21
Last Quarter
May 28
New
Jun 5
First Quarter

Hourly Weather History & Observations

Time (MDT) Temp. Dew Point Humidity Pressure Visibility Wind Dir Wind Speed Gust Speed Precip Events Conditions
12:51 AM 61.0 °F 19.9 °F 21% 29.93 in 10.0 mi ENE 15.0 mph 31.1 mph N/A   Partly Cloudy
12:54 AM 60.1 °F 21.9 °F 23% 30.09 in 10.0 mi ENE 10.4 mph - N/A   Partly Cloudy
1:42 AM 57.9 °F 24.1 °F 27% 30.13 in 6.0 mi NNE 18.4 mph 32.2 mph N/A   Widespread Dust
1:51 AM 57.9 °F 25.0 °F 28% 29.99 in 6.0 mi NNE 20.7 mph - N/A   Widespread Dust
2:51 AM 55.4 °F 24.8 °F 31% 30.16 in 10.0 mi North 18.4 mph - N/A   Partly Cloudy
3:51 AM 52.0 °F 23.0 °F 32% 30.03 in 10.0 mi NNE 12.7 mph - N/A   Scattered Clouds
4:51 AM 50.0 °F 24.1 °F 36% 30.05 in 10.0 mi NNE 19.6 mph - N/A   Partly Cloudy
5:51 AM 48.9 °F 23.0 °F 36% 30.08 in 10.0 mi NNE 9.2 mph - N/A   Clear
6:51 AM 48.2 °F 23.0 °F 37% 30.25 in 10.0 mi NE 10.4 mph - N/A   Clear
7:51 AM 50.0 °F 24.1 °F 36% 30.14 in 10.0 mi ENE 13.8 mph 19.6 mph N/A   Clear
8:51 AM 53.1 °F 24.1 °F 32% 30.16 in 10.0 mi NE 15.0 mph 24.2 mph N/A   Clear
9:51 AM 55.4 °F 24.8 °F 31% 30.30 in 10.0 mi East 16.1 mph 23.0 mph N/A   Clear
10:51 AM 57.9 °F 24.1 °F 27% 30.16 in 10.0 mi ENE 12.7 mph 21.9 mph N/A   Clear
11:51 AM 60.1 °F 25.0 °F 26% 30.16 in 10.0 mi ENE 13.8 mph 20.7 mph N/A   Partly Cloudy
12:51 PM 61.0 °F 25.0 °F 25% 30.16 in 10.0 mi East 10.4 mph - N/A   Partly Cloudy
1:51 PM 63.0 °F 25.0 °F 24% 30.14 in 10.0 mi NNE 12.7 mph 19.6 mph N/A   Partly Cloudy
2:51 PM 64.0 °F 25.0 °F 23% 30.14 in 10.0 mi NE 12.7 mph 19.6 mph N/A   Partly Cloudy
3:51 PM 64.0 °F 25.0 °F 23% 30.13 in 10.0 mi East 11.5 mph 16.1 mph N/A   Partly Cloudy
4:51 PM 64.9 °F 25.0 °F 22% 30.12 in 10.0 mi East 6.9 mph 18.4 mph N/A   Partly Cloudy
5:51 PM 64.9 °F 24.1 °F 21% 30.12 in 10.0 mi NNE 4.6 mph - N/A   Partly Cloudy
6:51 PM 64.9 °F 24.1 °F 21% 30.12 in 10.0 mi East 6.9 mph - N/A   Partly Cloudy
7:51 PM 64.0 °F 24.1 °F 22% 30.15 in 10.0 mi East 10.4 mph - N/A   Partly Cloudy
8:51 PM 61.0 °F 24.1 °F 24% 30.19 in 10.0 mi East 13.8 mph 20.7 mph N/A   Partly Cloudy
9:51 PM 59.0 °F 24.1 °F 26% 30.23 in 10.0 mi East 11.5 mph - N/A   Partly Cloudy
10:51 PM 57.0 °F 24.1 °F 28% 30.25 in 10.0 mi East 8.1 mph - N/A   Partly Cloudy
11:51 PM 55.0 °F 23.0 °F 29% 30.26 in 10.0 mi East 9.2 mph - N/A   Partly Cloudy